STARLINK-34519 (64608 NORAD) Tracking and Keplerian Element Data

This shows tracking and keplerian element data for the satellite.

Feedback or suggestion? Click here.




ElementValue
Catalog64608
NameSTARLINK-34519
Epoch Orbit2840
Epoch Day353.29089325
Epoch Year2025
RAAN350.2355
Inclination53.159
Eccentricity0.0001435
Argument of Perigee91.1191
Mean Anonmoly268.9978
Mean Motion15.39604773
Decay Rate0.00050133
L11 64608U 25137Q 25353.29089325 .00050133 00000+0 12557-2 0 9991
L22 64608 53.1590 350.2355 0001435 91.1191 268.9978 15.39604773 28405



Live tracking and technical data element details for STARLINK-34519 (NORAD 64608). STARLINK-34519 can be tracked NOW for your location showing map with azimuth and elevation plus other details from your city location.







IsCatalogInMostPopularTable: catalog: 64608, numindb: 13
Update: records affected: 1



GetName: 64608 STARLINK-34519

Hit Count: updated at: Tue, 21 Apr 2026 20:19:29 GMT